This is the latest recevied weather packets stored in our database for station/object N9PBY-2. If no packets are shown the sender has not sent any weather packets the latest 1 day(s).
| Time | Temp. | Humidity | Pressure | Rain* | Wind** | Luminosity | Snow |
|---|---|---|---|---|---|---|---|
| 1836274381 | 20° C | 76% | 1018.1 hPa | 0 mm | 0.89 m/s, 139° | - | - |
| 1836274231 | 20° C | 75% | 1018.2 hPa | 0 mm | 0.89 m/s, 139° | - | - |
| 1778059206 | 1.67° C | 63% | 1011.5 hPa | 0 mm | 0 m/s | - | - |
| 1778058607 | 1.11° C | 63% | 1011.3 hPa | 0 mm | 0 m/s | - | - |
| 1778058006 | 1.11° C | 63% | 1011.3 hPa | 0 mm | 0.45 m/s, 23° | - | - |
| 1778057407 | 1.11° C | 62% | 1011.2 hPa | 0 mm | 0.45 m/s, 349° | - | - |
| 1778056806 | 1.11° C | 61% | 1011.1 hPa | 0 mm | 0 m/s | - | - |
| 1778056206 | 1.11° C | 60% | 1010.9 hPa | 0 mm | 0 m/s | - | - |
| 1778055606 | 1.11° C | 60% | 1010.9 hPa | 0 mm | 0 m/s | - | - |
| 1778055006 | 1.11° C | 60% | 1010.8 hPa | 0 mm | 0 m/s | - | - |
| 1778054407 | 1.11° C | 60% | 1010.8 hPa | 0 mm | 0 m/s | - | - |
| 1778053806 | 1.11° C | 60% | 1010.7 hPa | 0 mm | 0 m/s | - | - |
| 1778053206 | 1.11° C | 59% | 1010.8 hPa | 0 mm | 0 m/s | - | - |
| 1778052606 | 1.67° C | 59% | 1010.8 hPa | 0 mm | 0 m/s | - | - |
| 1778052006 | 1.67° C | 58% | 1010.7 hPa | 0 mm | 0 m/s | - | - |
| 1778051407 | 2.22° C | 57% | 1010.9 hPa | 0 mm | 0 m/s | - | - |
| 1778050807 | 2.22° C | 57% | 1010.8 hPa | 0 mm | 0 m/s | - | - |
| 1778050206 | 2.22° C | 55% | 1011 hPa | 0 mm | 0 m/s | - | - |
| 1778049606 | 2.78° C | 52% | 1010.9 hPa | 0 mm | 0 m/s | - | - |
| 1778049006 | 2.78° C | 52% | 1010.8 hPa | 0 mm | 0 m/s | - | - |
| 1778048407 | 3.33° C | 51% | 1010.7 hPa | 0 mm | 0 m/s | - | - |
| 1778047806 | 3.89° C | 50% | 1010.7 hPa | 0 mm | 0 m/s | - | - |
| 1778047207 | 3.89° C | 48% | 1010.8 hPa | 0 mm | 0 m/s | - | - |
| 1778046606 | 4.44° C | 45% | 1011 hPa | 0 mm | 0 m/s | - | - |
| 1778046006 | 4.44° C | 44% | 1011.1 hPa | 0 mm | 0 m/s | - | - |
* Rain latest hour (hover to see other rain measurements)
** Current wind speed in m/s (hover to see current wind gust speed)